Weather reports worldwide

Advertisment
Butte, mt, United States of America (2074306): temperature & dewpoint: 19.05.2019 00:00:00 - 25.05.2019 00:00:00 (MDT)Butte, mt, United States of America (2074306): wind speed & gusts: 19.05.2019 00:00:00 - 25.05.2019 00:00:00 (MDT)Butte, mt, United States of America (2074306): wind direction: 19.05.2019 00:00:00 - 25.05.2019 00:00:00 (MDT)Butte, mt, United States of America (2074306): reduced air pressure: 19.05.2019 00:00:00 - 25.05.2019 00:00:00 (MDT)Butte, mt, United States of America (2074306): visibility: 19.05.2019 00:00:00 - 25.05.2019 00:00:00 (MDT)Butte, mt, United States of America (2074306): precipitation: 19.05.2019 00:00:00 - 25.05.2019 00:00:00 (MDT)
Date & Time tt [°C] td [°C] ff [km/h] ff [kn] fx [km/h] fx [kn] dd ppp [hPa] vv [km] rr [mm]
25.05.2019 00:00:00 8,3 3,9 8 4 - - - 1010,5 10 -
24.05.2019 23:00:00 7,2 3,3 5 3 - - ESE 1010,9 16 -
24.05.2019 22:00:00 7,8 3,3 8 4 - - SW 1010,6 16 -
24.05.2019 21:00:00 9,4 2,2 15 8 - - NE 1010,0 16 -
24.05.2019 20:00:00 10,6 3,3 15 8 - - S 1009,9 10 -
24.05.2019 19:00:00 10,0 2,2 15 8 - - SSE 1009,8 16 -
24.05.2019 18:00:00 11,1 2,2 26 14 - - WSW 1009,1 16 -
24.05.2019 17:00:00 13,3 0,6 9 5 - - WSW 1008,0 16 -
24.05.2019 16:00:00 11,7 0,6 13 7 - - SSE 1009,1 16 0,0
24.05.2019 15:00:00 11,7 1,1 22 12 - - NNW 1009,3 16 0,0
24.05.2019 14:00:00 12,8 0,6 15 8 - - WSW 1008,2 16 0,0
24.05.2019 13:00:00 13,3 0,6 8 4 - - - 1007,9 16 -
24.05.2019 12:00:00 12,2 0,6 16 9 - - NNW 1008,5 16 -
24.05.2019 11:00:00 11,1 0,0 11 6 - - W 1008,8 16 -
24.05.2019 10:00:00 9,4 0,6 0 0 - - N 1008,9 16 -
24.05.2019 09:00:00 5,6 1,1 0 0 - - N 1009,8 16 -
24.05.2019 08:00:00 3,3 0,6 8 4 - - SSE 1010,2 16 0,0
24.05.2019 07:00:00 2,2 0,0 0 0 - - N 1010,5 16 -
24.05.2019 06:00:00 1,7 -0,6 5 3 - - SE 1010,0 16 -
24.05.2019 05:00:00 2,2 -0,6 0 0 - - N 1009,6 16 -
24.05.2019 04:00:00 1,1 -1,1 5 3 - - S 1009,8 16 -
24.05.2019 03:00:00 1,7 -0,6 8 4 - - ESE 1009,7 16 -
24.05.2019 02:00:00 2,8 0,0 8 4 - - SSW 1009,6 16 -
24.05.2019 01:00:00 3,9 0,6 0 0 - - N 1009,7 16 -
24.05.2019 00:00:00 4,4 0,6 8 4 - - S 1009,9 16 -
23.05.2019 23:00:00 5,0 0,6 8 4 - - ESE 1010,4 16 -
23.05.2019 22:00:00 7,2 0,0 8 4 - - SW 1010,9 16 -
23.05.2019 21:00:00 7,8 0,0 5 3 - - S 1011,8 16 -
23.05.2019 20:00:00 7,8 0,6 13 7 - - S 1012,3 16 -
23.05.2019 19:00:00 7,8 0,6 15 8 - - SSE 1012,9 16 -
23.05.2019 18:00:00 8,3 0,6 29 16 48 26 SSE 1013,1 16 -
23.05.2019 17:00:00 10,6 -2,2 18 10 - - E 1012,3 16 -
23.05.2019 16:00:00 11,1 -1,7 9 5 - - NNE 1012,5 16 -
23.05.2019 15:00:00 10,6 -2,8 15 8 - - E 1013,3 16 -
23.05.2019 14:00:00 10,6 -1,7 5 3 - - NNW 1013,7 16 -
23.05.2019 13:00:00 10,6 -3,3 18 10 - - NNE 1014,1 16 -
23.05.2019 12:00:00 11,1 -2,8 15 8 - - NNE 1014,1 16 -
23.05.2019 11:00:00 10,0 -2,2 5 3 - - - 1014,6 16 -
23.05.2019 10:00:00 6,1 0,6 9 5 - - - 1016,1 16 -
23.05.2019 09:00:00 2,2 -0,6 5 3 - - SE 1017,8 16 -
23.05.2019 08:00:00 0,6 -1,1 0 0 - - N 1017,9 16 -
23.05.2019 07:00:00 0,0 -2,2 0 0 - - N 1018,0 16 -
23.05.2019 06:00:00 -1,1 -2,8 8 4 - - - 1018,4 16 -
23.05.2019 05:00:00 0,0 -2,2 0 0 - - N 1018,3 16 -
23.05.2019 04:00:00 0,6 -1,7 5 3 - - SSE 1018,1 16 -
23.05.2019 03:00:00 1,7 -1,1 0 0 - - N 1017,9 16 -
23.05.2019 02:00:00 1,7 -0,6 5 3 - - SE 1018,2 16 -
23.05.2019 01:00:00 2,2 -0,6 18 10 - - S 1018,6 16 -
23.05.2019 00:00:00 2,8 0,0 0 0 - - N 1018,7 16 -
22.05.2019 23:00:00 4,4 0,6 9 5 - - E 1019,1 16 -
22.05.2019 22:00:00 6,1 1,1 11 6 - - S 1018,6 16 -
22.05.2019 21:00:00 6,7 1,1 16 9 - - S 1018,1 16 -
22.05.2019 20:00:00 8,3 1,1 21 11 - - SSE 1017,2 16 0,0
22.05.2019 19:00:00 9,4 0,0 16 9 - - E 1016,5 16 0,0
22.05.2019 18:00:00 10,0 0,0 28 15 54 29 NNE 1016,0 16 -
22.05.2019 17:00:00 9,4 -0,6 26 14 - - NNE 1015,7 16 -
22.05.2019 16:00:00 10,0 -0,6 26 14 - - N 1015,4 16 -
22.05.2019 15:00:00 10,0 -0,6 24 13 - - NNE 1015,1 16 -
22.05.2019 14:00:00 8,9 0,0 26 14 - - N 1014,4 16 -
22.05.2019 13:00:00 7,8 0,0 24 13 - - N 1014,2 10 -
22.05.2019 12:00:00 6,7 0,0 11 6 - - - 1014,1 16 -
22.05.2019 11:00:00 3,9 -0,6 9 5 - - SE 1014,4 16 -
22.05.2019 10:00:00 3,3 -0,6 9 5 - - SSE 1014,1 16 -
22.05.2019 09:00:00 2,8 -1,1 9 5 - - ESE 1013,6 16 0,0
22.05.2019 08:00:00 2,8 -1,7 8 4 - - E 1013,0 11 0,8
22.05.2019 07:00:00 1,1 -0,6 13 7 - - SW 1012,6 4,8 0,0
22.05.2019 06:00:00 1,7 -0,6 9 5 - - SSW 1011,4 15 0,3
22.05.2019 05:00:00 1,7 -0,6 9 5 - - SW 1010,4 11 0,3
22.05.2019 04:00:00 2,2 -0,6 11 6 - - SSW 1009,5 16 0,0
22.05.2019 03:00:00 1,7 0,0 5 3 - - SW 1008,8 8 0,5
22.05.2019 02:00:00 2,8 -1,1 11 6 - - ESE 1008,4 13 0,0
22.05.2019 01:00:00 4,4 -2,2 16 9 48 26 E 1007,9 16 0,0
22.05.2019 00:00:00 5,0 -1,7 18 10 - - ENE 1007,9 16 -
21.05.2019 23:00:00 5,0 -0,6 18 10 - - NE 1007,5 16 0,0
21.05.2019 22:00:00 5,0 1,1 5 3 - - NE 1007,2 16 0,0
21.05.2019 21:00:00 5,6 0,0 5 3 - - - 1006,8 16 0,0
21.05.2019 20:00:00 6,1 0,0 9 5 - - - 1006,4 16 0,3
21.05.2019 19:00:00 6,1 1,7 13 7 - - NNE 1006,3 10 0,0
21.05.2019 18:00:00 6,7 1,7 18 10 - - N 1005,9 16 0,0
21.05.2019 17:00:00 7,2 1,1 16 9 - - NNE 1005,5 15 0,3
21.05.2019 16:00:00 8,9 0,0 16 9 - - ENE 1004,3 16 -
21.05.2019 15:00:00 10,6 0,0 18 10 - - ENE 1003,5 16 -
21.05.2019 14:00:00 8,9 0,0 13 7 - - SE 1004,3 16 -
21.05.2019 13:00:00 8,3 0,0 15 8 - - ESE 1004,9 10 -
21.05.2019 12:00:00 7,2 0,6 13 7 - - ESE 1005,1 16 -
21.05.2019 11:00:00 7,2 0,0 - - - - - 1004,9 16 -
21.05.2019 10:00:00 6,1 0,0 21 11 - - SSE 1005,2 16 -
21.05.2019 09:00:00 5,0 0,6 21 11 - - SSE 1005,8 16 -
21.05.2019 08:00:00 4,4 -0,6 8 4 - - S 1005,9 16 -
21.05.2019 07:00:00 3,9 -0,6 5 3 - - S 1005,9 16 -
21.05.2019 06:00:00 3,3 0,0 13 7 - - S 1005,9 16 -
21.05.2019 05:00:00 2,8 0,0 21 11 - - SSE 1007,0 16 -
21.05.2019 04:00:00 3,3 0,0 18 10 - - SSE 1007,5 16 -
21.05.2019 03:00:00 3,3 0,0 26 14 - - SSE 1007,8 16 -
21.05.2019 02:00:00 3,9 -0,6 11 6 - - S 1007,4 16 -
21.05.2019 01:00:00 3,9 0,0 18 10 - - SSE 1008,1 16 -
21.05.2019 00:00:00 4,4 -0,6 18 10 - - SE 1008,8 16 -
20.05.2019 23:00:00 4,4 -0,6 8 4 - - ESE 1008,9 16 -
20.05.2019 22:00:00 4,4 0,0 0 0 - - N 1009,3 16 0,0
20.05.2019 21:00:00 4,4 0,6 13 7 - - SE 1009,3 16 0,0
20.05.2019 20:00:00 5,0 1,1 5 3 - - NW 1009,2 16 0,0
20.05.2019 19:00:00 5,0 1,1 8 4 - - W 1009,3 11 0,0
20.05.2019 18:00:00 5,0 1,1 0 0 - - N 1009,8 16 0,0
20.05.2019 17:00:00 4,4 1,1 0 0 - - N 1009,7 11 0,3
20.05.2019 16:00:00 3,3 0,6 0 0 - - N 1010,0 16 0,0
20.05.2019 15:00:00 2,8 0,6 13 7 - - S 1010,4 8 0,3
20.05.2019 14:00:00 5,0 -1,7 5 3 - - S 1009,5 16 -
20.05.2019 13:00:00 4,4 -2,2 5 3 - - - 1009,7 16 -
20.05.2019 12:00:00 3,3 -2,2 8 4 - - S 1010,0 16 -
20.05.2019 11:00:00 2,8 -2,2 11 6 - - SSE 1010,4 16 -
20.05.2019 10:00:00 2,2 -2,2 15 8 - - S 1010,5 16 -
20.05.2019 09:00:00 1,7 -2,2 22 12 - - SE 1010,8 16 -
20.05.2019 08:00:00 1,7 -2,8 9 5 - - SSE 1010,2 16 -
20.05.2019 07:00:00 1,7 -2,8 16 9 - - S 1009,7 16 -
20.05.2019 06:00:00 1,7 -2,8 18 10 - - SSE 1009,9 16 -
20.05.2019 05:00:00 2,8 -3,3 0 0 - - N 1009,7 16 -
20.05.2019 04:00:00 2,8 -3,3 11 6 - - - 1009,9 16 -
20.05.2019 03:00:00 2,8 -3,3 9 5 - - ENE 1010,1 16 -
20.05.2019 02:00:00 2,2 -2,8 0 0 - - N 1010,6 16 -
20.05.2019 01:00:00 2,2 -2,8 5 3 - - S 1011,2 16 -
20.05.2019 00:00:00 2,2 -2,2 16 9 - - SSE 1011,8 16 0,0
19.05.2019 23:00:00 1,7 -1,7 24 13 - - SSE 1012,3 16 0,0
19.05.2019 22:00:00 2,2 -1,7 24 13 - - SSE 1012,3 16 -
19.05.2019 21:00:00 2,2 -1,7 18 10 - - SSE 1012,2 16 0,0
19.05.2019 20:00:00 3,3 -1,7 18 10 - - SSE 1011,7 16 0,0
19.05.2019 19:00:00 4,4 -2,2 8 4 - - ENE 1010,7 16 -
19.05.2019 18:00:00 5,0 -2,2 11 6 - - - 1010,7 16 -
19.05.2019 17:00:00 5,0 -2,2 15 8 - - E 1010,5 16 -
19.05.2019 16:00:00 4,4 -1,7 8 4 - - - 1011,0 16 -
19.05.2019 15:00:00 4,4 -2,2 11 6 - - NE 1011,2 16 -
19.05.2019 14:00:00 4,4 -1,7 - - - - - 1011,8 16 -
19.05.2019 13:00:00 3,9 -1,7 16 9 - - SSE 1011,9 16 -
19.05.2019 12:00:00 2,8 -2,2 9 5 - - - 1012,0 16 -
19.05.2019 11:00:00 2,8 -2,2 18 10 - - SSE 1012,3 16 -
19.05.2019 10:00:00 2,2 -2,2 24 13 - - SSE 1012,8 16 0,0
19.05.2019 09:00:00 2,2 -2,2 22 12 - - SSE 1012,1 16 -
19.05.2019 08:00:00 1,7 -2,2 11 6 - - SE 1012,2 16 -
19.05.2019 07:00:00 1,7 -2,2 18 10 - - SE 1012,8 16 -
19.05.2019 06:00:00 1,7 -1,7 24 13 - - SSE 1013,0 16 -
19.05.2019 05:00:00 1,7 -1,1 29 16 - - SSE 1012,9 16 -
19.05.2019 04:00:00 1,7 -1,1 29 16 - - SSE 1013,1 16 -
19.05.2019 03:00:00 2,2 -0,6 24 13 - - SSE 1013,2 16 -
19.05.2019 02:00:00 2,2 -0,6 15 8 - - SSE 1013,4 10 -
19.05.2019 01:00:00 2,8 0,0 24 13 - - SSE 1013,7 16 -
19.05.2019 00:00:00 3,9 0,0 28 15 - - SSE 1013,5 16 -

tt = temperature
td = dewpoint
ff = wind speed
fx = gusts
dd = wind direction
ppp = reduced air pressure
vv = visibility
rr = precipitation

Next stations